VK2OB Weather Reports


time (UTC)temp
C
wind
direction
speed
KPH
gust
KPH
rain 1hr
cm
rain 24hr
cm
rain mn
cm
humidity
%
barometer
mb
20260510094748 18 90 1.6 3.2 0.00 0.00 0.00 78 1029.9
20260510094249 18 180 3.2 6.4 0.00 0.00 0.00 78 1029.9
20260510093749 18 203 0.0 1.6 0.00 0.00 0.00 78 1029.8
20260510093249 19 45 0.0 3.2 0.00 0.00 0.00 77 1029.7
20260510092751 19 225 3.2 6.4 0.00 0.00 0.00 77 1029.6
20260510092251 19 270 0.0 3.2 0.00 0.00 0.00 78 1029.6
20260510091753 18 90 1.6 3.2 0.00 0.00 0.00 81 1029.6
20260510091254 18 180 3.2 6.4 0.00 0.00 0.00 82 1029.6
20260510090755 18 225 1.6 3.2 0.00 0.00 0.00 82 1029.5
20260510090256 18 180 0.0 3.2 0.00 0.00 0.00 82 1029.5
20260510085756 18 180 1.6 3.2 0.00 0.00 0.00 82 1029.4
20260510085257 18 225 1.6 4.8 0.00 0.00 0.00 81 1029.4
20260510084759 18 180 0.0 3.2 0.00 0.00 0.00 80 1029.2
20260510084300 18 225 1.6 3.2 0.00 0.00 0.00 79 1029.2
20260510083755 18 90 3.2 8.0 0.00 0.00 0.00 79 1029.1
20260510083023 18 225 3.2 8.0 0.00 0.00 0.00 78 1029.0
20260510082524 18 225 1.6 4.8 0.00 0.00 0.00 78 1028.9
20260510082025 18 135 1.6 3.2 0.00 0.00 0.00 78 1028.9
20260510081519 18 180 0.0 1.6 0.00 0.00 0.00 77 1028.9
20260510080746 18 180 0.0 1.6 0.00 0.00 0.00 76 1028.8
20260510080247 18 225 1.6 3.2 0.00 0.00 0.00 75 1028.8
20260510075748 18 45 0.0 4.8 0.00 0.00 0.00 75 1028.7
20260510075248 18 225 0.0 1.6 0.00 0.00 0.00 74 1028.6
20260510074743 19 180 1.6 8.0 0.00 0.00 0.00 73 1028.7
20260510073738 19 45 3.2 4.8 0.00 0.00 0.00 73 1028.6
20260510073239 19 135 3.2 8.0 0.00 0.00 0.00 73 1028.6
20260510072739 19 180 3.2 3.2 0.00 0.00 0.00 73 1028.6
20260510072240 19 270 0.0 3.2 0.00 0.00 0.00 73 1028.6
20260510071741 19 225 1.6 3.2 0.00 0.00 0.00 73 1028.5
20260510071242 19 180 1.6 3.2 0.00 0.00 0.00 73 1028.6
20260510070743 19 225 0.0 3.2 0.00 0.00 0.00 73 1028.4
20260510070244 19 180 3.2 8.0 0.00 0.00 0.00 73 1028.4
20260510065744 19 180 0.0 3.2 0.00 0.00 0.00 72 1028.3
20260510065246 20 293 1.6 3.2 0.00 0.00 0.00 72 1028.3
20260510064747 20 180 0.0 3.2 0.00 0.00 0.00 72 1028.2
20260510064242 20 225 4.8 9.7 0.00 0.00 0.00 70 1028.2
20260510063508 20 180 3.2 8.0 0.00 0.00 0.00 69 1028.1
20260510063010 20 135 3.2 6.4 0.00 0.00 0.00 68 1028.0
20260510062511 20 270 1.6 3.2 0.00 0.00 0.00 67 1028.0
20260510062012 20 315 1.6 3.2 0.00 0.00 0.00 67 1028.0
20260510061513 20 225 0.0 4.8 0.00 0.00 0.00 66 1028.0
20260510061013 20 180 0.0 1.6 0.00 0.00 0.00 67 1027.9
20260510060514 20 158 0.0 1.6 0.00 0.00 0.00 67 1027.8
20260510060016 20 180 1.6 3.2 0.00 0.00 0.00 66 1027.8
20260510055517 20 135 0.0 3.2 0.00 0.00 0.00 66 1027.7
20260510055018 20 315 0.0 3.2 0.00 0.00 0.00 65 1027.6
20260510054513 20 315 3.2 6.4 0.00 0.00 0.00 64 1027.7
20260510053741 20 0 0.0 3.2 0.00 0.00 0.00 63 1027.6
20260510053242 20 225 1.6 3.2 0.00 0.00 0.00 62 1027.6
20260510052742 20 135 1.6 3.2 0.00 0.00 0.00 61 1027.5
20260510052244 21 180 3.2 4.8 0.00 0.00 0.00 59 1027.4
20260510051745 21 180 3.2 4.8 0.00 0.00 0.00 59 1027.4
20260510051246 21 180 3.2 6.4 0.00 0.00 0.00 58 1027.2
20260510050747 21 315 1.6 3.2 0.00 0.00 0.00 57 1027.3
20260510050247 21 135 0.0 1.6 0.00 0.00 0.00 58 1027.2
20260510045749 21 315 3.2 8.0 0.00 0.00 0.00 58 1027.2
20260510045250 21 180 1.6 3.2 0.00 0.00 0.00 59 1027.2
20260510044751 21 225 3.2 6.4 0.00 0.00 0.00 60 1027.2
20260510044252 21 180 1.6 4.8 0.00 0.00 0.00 60 1027.1
20260510043753 21 180 1.6 3.2 0.00 0.00 0.00 59 1027.1
20260510043253 21 225 1.6 3.2 0.00 0.00 0.00 59 1027.1
20260510042754 21 225 1.6 3.2 0.00 0.00 0.00 57 1027.1
20260510042254 21 180 3.2 6.4 0.00 0.00 0.00 57 1027.1
20260510041756 21 45 1.6 3.2 0.00 0.00 0.00 56 1027.1
20260510041257 21 225 1.6 3.2 0.00 0.00 0.00 56 1027.1
20260510040758 21 225 0.0 1.6 0.00 0.00 0.00 55 1027.1
20260510040259 21 180 3.2 6.4 0.00 0.00 0.00 55 1027.1
20260510035800 22 315 1.6 3.2 0.00 0.00 0.00 53 1027.0
20260510035300 22 180 0.0 1.6 0.00 0.00 0.00 52 1027.0
20260510034802 22 225 0.0 3.2 0.00 0.00 0.00 53 1026.9
20260510034303 22 270 1.6 3.2 0.00 0.00 0.00 52 1026.9
20260510033804 22 315 0.0 1.6 0.00 0.00 0.00 52 1026.9
20260510033304 22 315 0.0 1.6 0.00 0.00 0.00 53 1026.9
20260510032806 22 270 0.0 3.2 0.00 0.00 0.00 51 1027.0
20260510032307 22 225 0.0 1.6 0.00 0.00 0.00 52 1027.1
20260510031802 22 135 1.6 3.2 0.00 0.00 0.00 51 1027.2
20260510031030 22 180 1.6 3.2 0.00 0.00 0.00 51 1027.3
20260510030531 22 225 0.0 3.2 0.00 0.00 0.00 51 1027.3
20260510030031 22 90 1.6 3.2 0.00 0.00 0.00 52 1027.3
20260510025532 22 270 1.6 3.2 0.00 0.00 0.00 51 1027.3
20260510025027 22 203 0.0 1.6 0.00 0.00 0.00 51 1027.3
20260510024256 22 315 0.0 1.6 0.00 0.00 0.00 52 1027.4
20260510023757 23 225 3.2 4.8 0.00 0.00 0.00 52 1027.5
20260510023252 23 225 3.2 6.4 0.00 0.00 0.00 52 1027.5
20260510022520 23 225 4.8 8.0 0.00 0.00 0.00 52 1027.6
20260510022021 23 180 3.2 6.4 0.00 0.00 0.00 49 1027.5
20260510021522 23 270 1.6 3.2 0.00 0.00 0.00 47 1027.6
20260510021023 24 225 3.2 6.4 0.00 0.00 0.00 46 1027.7
20260510020523 24 225 3.2 6.4 0.00 0.00 0.00 46 1027.7
20260510020023 23 180 3.2 6.4 0.00 0.00 0.00 45 1027.8
20260510015525 23 225 1.6 3.2 0.00 0.00 0.00 46 1027.9
20260510015026 23 225 4.8 8.0 0.00 0.00 0.00 45 1028.0
20260510014527 23 225 3.2 8.0 0.00 0.00 0.00 44 1028.1
20260510014028 23 225 3.2 6.4 0.00 0.00 0.00 43 1028.2
20260510013528 23 225 3.2 4.8 0.00 0.00 0.00 44 1028.2
20260510013030 23 225 3.2 4.8 0.00 0.00 0.00 46 1028.2
20260510012531 22 180 1.6 3.2 0.00 0.00 0.00 49 1028.2
20260510012032 21 225 3.2 6.4 0.00 0.00 0.00 50 1028.3
20260510011532 21 225 3.2 3.2 0.00 0.00 0.00 51 1028.3
20260510011034 21 180 4.8 6.4 0.00 0.00 0.00 52 1028.4
20260510010535 20 180 3.2 6.4 0.00 0.00 0.00 53 1028.5
20260510010036 21 270 4.8 9.7 0.00 0.00 0.00 52 1028.5
20260510005536 20 270 0.0 1.6 0.00 0.00 0.00 53 1028.5
20260510005038 21 180 4.8 6.4 0.00 0.00 0.00 53 1028.5
20260510004539 20 180 3.2 6.4 0.00 0.00 0.00 53 1028.6
20260510004034 20 225 1.6 3.2 0.00 0.00 0.00 53 1028.7
20260510003302 20 225 1.6 3.2 0.00 0.00 0.00 53 1028.6
20260510002757 20 180 3.2 4.8 0.00 0.00 0.00 56 1028.7
20260510002023 20 225 0.0 1.6 0.00 0.00 0.00 58 1028.6
20260510001524 20 180 3.2 6.4 0.00 0.00 0.00 58 1028.6
20260510001026 20 180 0.0 3.2 0.00 0.00 0.00 58 1028.5
20260510000521 20 225 0.0 1.6 0.00 0.00 0.00 57 1028.6
20260509235743 21 225 3.2 6.4 0.00 0.00 0.00 55 1028.5
20260509235011 22 180 1.6 3.2 0.00 0.00 0.00 53 1028.5
20260509234512 22 180 0.0 1.6 0.00 0.00 0.00 54 1028.5
20260509234013 22 180 0.0 1.6 0.00 0.00 0.00 56 1028.4
20260509233514 21 180 0.0 1.6 0.00 0.00 0.00 61 1028.4
20260509233008 20 180 0.0 1.6 0.00 0.00 0.00 67 1028.4
20260509232236 17 180 0.0 1.6 0.00 0.00 0.00 68 1028.3
20260509231736 17 180 1.6 3.2 0.00 0.00 0.00 67 1028.4
20260509231238 18 180 0.0 1.6 0.00 0.00 0.00 68 1028.4
20260509230739 18 180 1.6 3.2 0.00 0.00 0.00 70 1028.4
20260509230234 17 135 0.0 1.6 0.00 0.00 0.00 72 1028.2
20260509225502 17 135 0.0 0.0 0.00 0.00 0.00 71 1028.1
20260509225002 17 135 0.0 0.0 0.00 0.00 0.00 71 1028.1
20260509224504 17 135 0.0 1.6 0.00 0.00 0.00 75 1028.1
20260509224005 16 135 0.0 1.6 0.00 0.00 0.00 79 1028.1
20260509223506 16 135 0.0 0.0 0.00 0.00 0.00 80 1028.1
20260509223006 15 135 0.0 0.0 0.00 0.00 0.00 81 1028.0
20260509222508 15 135 0.0 1.6 0.00 0.00 0.00 82 1028.1
20260509222009 15 135 0.0 1.6 0.00 0.00 0.00 84 1028.0
20260509221509 14 135 0.0 1.6 0.00 0.00 0.00 84 1028.0
20260509221010 14 135 0.0 1.6 0.00 0.00 0.00 85 1028.0
20260509220512 14 135 0.0 1.6 0.00 0.00 0.00 85 1028.1
20260509220007 14 135 0.0 1.6 0.00 0.00 0.00 86 1028.0
20260509215235 14 135 0.0 0.0 0.00 0.00 0.00 88 1027.9
20260509214736 13 135 0.0 0.0 0.00 0.00 0.00 89 1027.8
20260509214237 13 135 0.0 1.6 0.00 0.00 0.00 91 1027.7
20260509213737 13 135 0.0 1.6 0.00 0.00 0.00 92 1027.7
20260509213239 13 135 0.0 1.6 0.00 0.00 0.00 92 1027.6
20260509212734 12 135 1.6 3.2 0.00 0.00 0.00 92 1027.6
20260509212000 12 135 0.0 1.6 0.00 0.00 0.00 91 1027.5
20260509211502 12 135 1.6 3.2 0.00 0.00 0.00 91 1027.4
20260509211003 12 135 0.0 1.6 0.00 0.00 0.00 91 1027.4
20260509210504 12 135 1.6 3.2 0.00 0.00 0.00 90 1027.4
20260509210005 11 135 1.6 3.2 0.00 0.00 0.00 91 1027.4
20260509205505 11 135 0.0 1.6 0.00 0.00 0.00 90 1027.3
20260509205000 11 135 1.6 3.2 0.00 0.00 0.00 89 1027.3
20260509204227 11 135 0.0 1.6 0.00 0.00 0.00 86 1027.2
20260509203728 12 135 0.0 3.2 0.00 0.00 0.00 85 1027.1
20260509203230 12 135 0.0 1.6 0.00 0.00 0.00 87 1027.0
20260509202731 13 180 0.0 0.0 0.00 0.00 0.00 87 1026.9
20260509202225 13 180 0.0 1.6 0.00 0.00 0.00 87 1026.9
20260509201214 13 225 0.0 0.0 0.00 0.00 0.00 86 1026.8
20260509200440 13 225 0.0 1.6 0.00 0.00 0.00 85 1026.7
20260509195941 13 225 0.0 0.0 0.00 0.00 0.00 85 1026.7
20260509195443 13 225 0.0 0.0 0.00 0.00 0.00 84 1026.7
20260509194944 13 225 0.0 0.0 0.00 0.00 0.00 84 1026.6
20260509194445 13 225 0.0 1.6 0.00 0.00 0.00 84 1026.5
20260509193945 13 225 0.0 0.0 0.00 0.00 0.00 84 1026.5
20260509193446 13 225 0.0 1.6 0.00 0.00 0.00 84 1026.4
20260509192946 13 180 1.6 3.2 0.00 0.00 0.00 83 1026.3
20260509192448 13 225 0.0 0.0 0.00 0.00 0.00 83 1026.3
20260509191949 13 225 0.0 1.6 0.00 0.00 0.00 83 1026.3
20260509191450 13 225 0.0 3.2 0.00 0.00 0.00 84 1026.2
20260509190950 13 180 0.0 0.0 0.00 0.00 0.00 85 1026.1
20260509190451 13 180 0.0 1.6 0.00 0.00 0.00 85 1026.1
20260509185953 13 180 0.0 0.0 0.00 0.00 0.00 84 1026.1
20260509185454 13 180 0.0 1.6 0.00 0.00 0.00 84 1026.0
20260509184955 13 180 0.0 1.6 0.00 0.00 0.00 84 1025.9
20260509184456 13 180 0.0 1.6 0.00 0.00 0.00 82 1025.9
20260509183957 13 180 0.0 1.6 0.00 0.00 0.00 82 1025.9
20260509183451 13 180 0.0 0.0 0.00 0.00 0.00 82 1025.8
20260509182718 14 180 0.0 0.0 0.00 0.00 0.00 82 1025.7
20260509182219 14 180 0.0 1.6 0.00 0.00 0.00 82 1025.7
20260509181719 14 180 0.0 3.2 0.00 0.00 0.00 82 1025.7
20260509181220 14 180 0.0 1.6 0.00 0.00 0.00 82 1025.7
20260509180720 14 225 0.0 1.6 0.00 0.00 0.00 82 1025.7
20260509180222 14 203 0.0 1.6 0.00 0.00 0.00 83 1025.6
20260509175723 14 180 0.0 1.6 0.00 0.00 0.00 83 1025.6
20260509175224 14 225 0.0 3.2 0.00 0.00 0.00 83 1025.6
20260509174725 14 180 0.0 3.2 0.00 0.00 0.00 83 1025.5
20260509174226 14 225 0.0 1.6 0.00 0.00 0.00 83 1025.5
20260509173726 14 225 0.0 1.6 0.00 0.00 0.00 83 1025.5
20260509173228 14 225 0.0 3.2 0.00 0.00 0.00 83 1025.4
20260509172728 14 225 0.0 3.2 0.00 0.00 0.00 83 1025.5
20260509172229 14 225 0.0 1.6 0.00 0.00 0.00 83 1025.5
20260509171731 14 225 1.6 3.2 0.00 0.00 0.00 83 1025.4
20260509171231 14 225 0.0 1.6 0.00 0.00 0.00 83 1025.5
20260509170733 14 225 0.0 1.6 0.00 0.00 0.00 83 1025.5
20260509170234 14 225 0.0 0.0 0.00 0.00 0.00 84 1025.5
20260509165729 14 225 1.6 3.2 0.00 0.00 0.00 84 1025.5
20260509164950 14 225 1.6 3.2 0.00 0.00 0.00 85 1025.5
20260509164218 13 225 0.0 0.0 0.00 0.00 0.00 85 1025.5
20260509163718 13 225 0.0 1.6 0.00 0.00 0.00 85 1025.4
20260509163220 13 225 0.0 0.0 0.00 0.00 0.00 86 1025.5
20260509162715 13 225 0.0 0.0 0.00 0.00 0.00 85 1025.5
20260509161942 13 225 0.0 0.0 0.00 0.00 0.00 85 1025.5
20260509161444 13 225 0.0 0.0 0.00 0.00 0.00 85 1025.6
20260509160945 13 225 0.0 0.0 0.00 0.00 0.00 85 1025.6
20260509160446 13 225 0.0 0.0 0.00 0.00 0.00 85 1025.5
20260509155946 13 225 0.0 0.0 0.00 0.00 0.00 85 1025.6
20260509155448 13 225 0.0 0.0 0.00 0.00 0.00 85 1025.6
20260509154949 13 225 0.0 0.0 0.00 0.00 0.00 85 1025.5
20260509154450 13 225 0.0 0.0 0.00 0.00 0.00 85 1025.5
20260509153951 13 225 0.0 0.0 0.00 0.00 0.00 85 1025.5
20260509153451 13 225 0.0 0.0 0.00 0.00 0.00 84 1025.6
20260509152953 13 225 0.0 0.0 0.00 0.00 0.00 84 1025.7
20260509152454 13 225 0.0 0.0 0.00 0.00 0.00 83 1025.6
20260509151955 13 225 0.0 0.0 0.00 0.00 0.00 83 1025.6
20260509151456 13 225 0.0 0.0 0.00 0.00 0.00 83 1025.6
20260509150957 13 225 0.0 0.0 0.00 0.00 0.00 84 1025.5
20260509150458 13 225 0.0 0.0 0.00 0.00 0.00 83 1025.5
20260509145959 13 225 0.0 0.0 0.00 0.00 0.00 83 1025.5
20260509145459 13 225 0.0 0.0 0.00 0.00 0.00 82 1025.5
20260509145000 13 225 0.0 0.0 0.00 0.00 0.00 82 1025.5
20260509144502 13 225 0.0 0.0 0.00 0.00 0.00 81 1025.5
20260509144003 13 225 0.0 1.6 0.00 0.00 0.00 81 1025.4
20260509143503 13 225 0.0 0.0 0.00 0.00 0.00 80 1025.5
20260509143004 13 225 0.0 0.0 0.00 0.00 0.00 79 1025.5
20260509142506 13 225 0.0 0.0 0.00 0.00 0.00 78 1025.5
20260509142007 14 225 0.0 0.0 0.00 0.00 0.00 78 1025.5
20260509141508 14 225 0.0 1.6 0.00 0.00 0.00 79 1025.5
20260509141009 15 225 0.0 0.0 0.00 0.00 0.00 79 1025.4
20260509140509 15 180 1.6 1.6 0.00 0.00 0.00 80 1025.5
20260509140010 14 225 0.0 1.6 0.00 0.00 0.00 80 1025.5
20260509135512 14 180 0.0 1.6 0.00 0.00 0.00 80 1025.5
20260509135013 14 180 0.0 1.6 0.00 0.00 0.00 80 1025.5
20260509134513 14 225 0.0 1.6 0.00 0.00 0.00 80 1025.5
20260509134007 14 180 1.6 1.6 0.00 0.00 0.00 80 1025.6
20260509133235 13 225 0.0 0.0 0.00 0.00 0.00 80 1025.5
20260509132735 13 225 0.0 1.6 0.00 0.00 0.00 79 1025.6
20260509132236 13 225 0.0 1.6 0.00 0.00 0.00 78 1025.6
20260509131738 13 225 0.0 1.6 0.00 0.00 0.00 77 1025.6
20260509131239 14 225 0.0 0.0 0.00 0.00 0.00 77 1025.6
20260509130740 14 225 0.0 0.0 0.00 0.00 0.00 78 1025.6
20260509130241 14 225 0.0 1.6 0.00 0.00 0.00 77 1025.6
20260509125742 14 225 0.0 0.0 0.00 0.00 0.00 77 1025.6
20260509125242 14 225 0.0 0.0 0.00 0.00 0.00 77 1025.6
20260509124744 15 225 0.0 0.0 0.00 0.00 0.00 78 1025.6
20260509124245 15 225 0.0 1.6 0.00 0.00 0.00 78 1025.6
20260509123746 15 225 0.0 1.6 0.00 0.00 0.00 79 1025.6
20260509123246 14 225 0.0 3.2 0.00 0.00 0.00 80 1025.6
20260509122747 14 180 1.6 4.8 0.00 0.00 0.00 80 1025.6
20260509122249 13 225 1.6 3.2 0.00 0.00 0.00 81 1025.6
20260509121744 13 225 0.0 1.6 0.00 0.00 0.00 81 1025.7
20260509121010 13 225 0.0 1.6 0.00 0.00 0.00 81 1025.7
20260509120510 13 225 0.0 0.0 0.00 0.00 0.00 80 1025.8
20260509120012 13 225 0.0 1.6 0.00 0.00 0.00 80 1025.8
20260509115513 13 225 0.0 0.0 0.00 0.00 0.00 79 1025.8
20260509115014 14 225 0.0 0.0 0.00 0.00 0.00 78 1025.8
20260509114508 14 225 0.0 0.0 0.00 0.00 0.00 78 1025.7
20260509113730 14 225 0.0 0.0 0.00 0.00 0.00 78 1025.7
20260509112952 14 225 0.0 0.0 0.00 0.00 0.00 78 1025.6
20260509112218 14 225 0.0 0.0 0.00 0.00 0.00 77 1025.6
20260509111719 14 225 0.0 0.0 0.00 0.00 0.00 76 1025.6
20260509111215 14 225 0.0 0.0 0.00 0.00 0.00 76 1025.7
20260509110442 15 225 0.0 0.0 0.00 0.00 0.00 76 1025.6
20260509105944 15 225 0.0 1.6 0.00 0.00 0.00 76 1025.6
20260509105445 15 225 1.6 3.2 0.00 0.00 0.00 76 1025.6
20260509104946 15 225 0.0 1.6 0.00 0.00 0.00 78 1025.5
20260509104446 14 225 0.0 0.0 0.00 0.00 0.00 78 1025.5
20260509103942 14 225 0.0 1.6 0.00 0.00 0.00 77 1025.5
20260509103209 14 225 0.0 1.6 0.00 0.00 0.00 76 1025.6
20260509102711 14 225 0.0 0.0 0.00 0.00 0.00 76 1025.5
20260509102212 14 225 0.0 1.6 0.00 0.00 0.00 75 1025.5
20260509101713 14 225 0.0 0.0 0.00 0.00 0.00 75 1025.4
20260509101214 15 225 0.0 0.0 0.00 0.00 0.00 75 1025.4
20260509100715 15 225 0.0 1.6 0.00 0.00 0.00 75 1025.4
20260509100216 15 225 0.0 1.6 0.00 0.00 0.00 73 1025.3
20260509095717 15 225 0.0 1.6 0.00 0.00 0.00 73 1025.3
20260509095218 15 225 0.0 0.0 0.00 0.00 0.00 73 1025.2